STARLINK-4300 (53173 NORAD) Tracking and Keplerian Element Data

This shows tracking and keplerian element data for the satellite.

Feedback or suggestion? Click here.




ElementValue
Catalog53173
NameSTARLINK-4300
Epoch Orbit130
Epoch Day269.91667824
Epoch Year2022
RAAN53.831
Inclination53.215
Eccentricity0.0004604
Argument of Perigee1.2421
Mean Anonmoly24.5449
Mean Motion15.73203259
Decay Rate0.00032357
L11 53173U 22083AT 22269.91667824 .00032357 00000+0 23395-3 0 9992
L22 53173 53.2150 53.8310 0004604 1.2421 24.5449 15.73203259 1300

Live tracking and technical data element details for STARLINK-4300 (NORAD 53173). STARLINK-4300 can be tracked NOW for your location showing map with azimuth and elevation plus other details from your city location.

Track the satellite on the map from your city or location and see movement details for azimuth, elevation, latitude, longitude, range, height, and movement on the map or in text.







IsCatalogInMostPopularTable: catalog: 53173, numindb: 7
Update: records affected: 1



GetName: 53173 STARLINK-4300

Hit Count: updated at: Thu, 29 Sep 2022 10:31:08 GMT